ISS (ZARYA) 1 25544U 98067A 26166.51237796 .00007685 00000+0 14626-3 0 9998 2 25544 51.6337 308.3821 0004850 189.0196 171.0706 15.49243792571497 POISK 1 36086U 09060A 26166.51237796 .00007685 00000+0 14626-3 0 9996 2 36086 51.6337 308.3821 0004850 189.0196 171.0706 15.49243792571096 CSS (TIANHE) 1 48274U 21035A 26166.50532757 .00020720 00000+0 24515-3 0 9991 2 48274 41.4694 332.2368 0007551 63.8756 296.2859 15.60745824292900 ISS (NAUKA) 1 49044U 21066A 26166.51237796 .00007685 00000+0 14626-3 0 9994 2 49044 51.6337 308.3821 0004850 189.0196 171.0706 15.49243792571140 FREGAT DEB 1 49271U 11037PF 26151.14915702 .00018955 00000+0 30994-1 0 9992 2 49271 51.6227 53.0895 0914379 245.3590 104.9405 12.41880577222933 CSS (WENTIAN) 1 53239U 22085A 26166.50532757 .00020720 00000+0 24515-3 0 9994 2 53239 41.4694 332.2368 0007551 63.8756 296.2859 15.60745824288238 CSS (MENGTIAN) 1 54216U 22143A 26166.50532757 .00020720 00000+0 24515-3 0 9995 2 54216 41.4694 332.2368 0007551 63.8756 296.2859 15.60745824293386 HRC MONOBLOCK CAMERA 1 66052U 98067XR 26166.61416084 .00069303 00000+0 48077-3 0 9999 2 66052 51.6256 287.2517 0001425 283.5002 76.5838 15.73800808 37759 SZ-21 MODULE 1 66515U 25246C 26164.73115900 .00045764 00000+0 28446-3 0 9999 2 66515 41.4731 328.8460 0006751 328.3391 31.7047 15.76117488 33190 SOYUZ-MS 28 1 66664U 25275A 26166.51237796 .00007685 00000+0 14626-3 0 9997 2 66664 51.6337 308.3821 0004850 189.0196 171.0706 15.49243792571248 DUPLEX 1 66906U 98067XS 26166.58134800 .00033334 00000+0 37167-3 0 9999 2 66906 51.6282 297.5802 0003423 199.2005 160.8861 15.62486744 30408 ISS OBJECT XY 1 66912U 98067XY 26166.60003747 .00417871 82981-4 92420-3 0 9992 2 66912 51.6179 282.5326 0010656 317.3526 42.6654 15.97324047 30594 KNACKSAT-2 1 67683U 98067XZ 26166.55673681 .00040813 00000+0 50084-3 0 9997 2 67683 51.6309 302.6773 0009315 207.8758 152.1737 15.59850380 20023 CORAL 1 67684U 98067YA 26166.61198869 .00174281 00000+0 10722-2 0 9996 2 67684 51.6240 296.2505 0008794 247.4924 112.5145 15.76107691 20116 GXIBA-1 1 67685U 98067YB 26166.56066800 .00048016 00000+0 55281-3 0 9996 2 67685 51.6297 301.9490 0010478 206.3547 153.6915 15.61429463 20033 UITMSAT-2 1 67686U 98067YC 26165.68160312 .00072355 00000+0 73487-3 0 9993 2 67686 51.6274 305.0775 0006049 194.6662 165.4159 15.64510659 19913 LEOPARD 1 67687U 98067YD 26166.58593641 .00046636 00000+0 55043-3 0 9990 2 67687 51.6317 302.1321 0006472 189.3722 170.7152 15.60835981 19955 HMU-SAT2 1 67688U 98067YE 26166.56381597 .00057939 00000+0 62387-3 0 9991 2 67688 51.6303 301.2291 0006022 194.1471 165.9355 15.63116902 19963 CREW DRAGON 12 1 67796U 26031A 26166.51237795 .00007736 00000+0 14717-3 0 9992 2 67796 51.6337 308.3821 0004848 188.9923 171.0979 15.49243888571268 PROGRESS-MS 33 1 68319U 26058A 26166.51237796 .00007685 00000+0 14626-3 0 9996 2 68319 51.6337 308.3821 0004850 189.0196 171.0706 15.49243792571292 CYGNUS NG-24 1 68689U 26079A 26166.51237795 .00007736 00000+0 14717-3 0 9996 2 68689 51.6337 308.3821 0004848 188.9923 171.0979 15.49243888571417 PROGRESS-MS 34 1 68837U 26093A 26166.51237795 .00007736 00000+0 14717-3 0 9997 2 68837 51.6337 308.3821 0004848 188.9923 171.0979 15.49243888571467 TIANZHOU-10 1 69049U 26102A 26166.50532757 .00020720 00000+0 24515-3 0 9994 2 69049 41.4694 332.2368 0007551 63.8756 296.2859 15.60745824 5668 DRAGON CRS-34 1 69103U 26107A 26166.51237796 .00007685 00000+0 14626-3 0 9993 2 69103 51.6337 308.3821 0004850 189.0196 171.0706 15.49243792571441 SHENZHOU-23 (SZ-23) 1 69180U 26113A 26166.50532757 .00020720 00000+0 24515-3 0 9992 2 69180 41.4694 332.2368 0007551 63.8756 296.2859 15.60745824293113